Year,Month,Day,Hour,Minute,Value (Times are PST for temperature in C)
2016,05,01,00,00,10.90
2016,05,01,00,01,11.00
2016,05,01,00,02,11.00
2016,05,01,00,03,11.00
2016,05,01,00,04,11.10
2016,05,01,00,05,11.10
2016,05,01,00,06,11.10
2016,05,01,00,07,11.10
2016,05,01,00,08,11.10
2016,05,01,00,09,11.10
2016,05,01,00,10,11.10
2016,05,01,00,11,11.20
2016,05,01,00,12,11.20
2016,05,01,00,13,11.20
2016,05,01,00,14,11.20
2016,05,01,00,15,11.20
2016,05,01,00,16,11.10
2016,05,01,00,17,11.10
2016,05,01,00,18,11.10
2016,05,01,00,19,11.00
2016,05,01,00,20,10.90
2016,05,01,00,21,10.80
2016,05,01,00,22,10.70
2016,05,01,00,23,10.60
2016,05,01,00,24,10.50
2016,05,01,00,25,10.40
2016,05,01,00,26,10.30
2016,05,01,00,27,10.30
2016,05,01,00,28,10.20
2016,05,01,00,29,10.20
2016,05,01,00,30,10.20
2016,05,01,00,31,10.10
2016,05,01,00,32,10.10
2016,05,01,00,33,10.10
2016,05,01,00,34,10.10
2016,05,01,00,35,10.10
2016,05,01,00,36,10.10
2016,05,01,00,37,10.10
2016,05,01,00,38,10.10
2016,05,01,00,39,10.10
2016,05,01,00,40,10.10
2016,05,01,00,41,10.00
2016,05,01,00,42,10.00
2016,05,01,00,43,10.00
2016,05,01,00,44,9.90
2016,05,01,00,45,9.90
2016,05,01,00,46,9.80
2016,05,01,00,47,9.80
2016,05,01,00,48,9.80
2016,05,01,00,49,9.80
2016,05,01,00,50,9.80
2016,05,01,00,51,9.80
2016,05,01,00,52,9.80
2016,05,01,00,53,9.90
2016,05,01,00,54,10.00
2016,05,01,00,55,10.10
2016,05,01,00,56,10.20
2016,05,01,00,57,10.30
2016,05,01,00,58,10.40
2016,05,01,00,59,10.50
2016,05,01,01,00,10.50
2016,05,01,01,01,10.50
2016,05,01,01,02,10.60
2016,05,01,01,03,10.50
2016,05,01,01,04,10.60
2016,05,01,01,05,10.60
2016,05,01,01,06,10.60
2016,05,01,01,07,10.60
2016,05,01,01,08,10.60
2016,05,01,01,09,10.60
2016,05,01,01,10,10.70
2016,05,01,01,11,10.70
2016,05,01,01,12,10.70
2016,05,01,01,13,10.70
2016,05,01,01,14,10.80
2016,05,01,01,15,10.80
2016,05,01,01,16,10.80
2016,05,01,01,17,10.80
2016,05,01,01,18,10.80
2016,05,01,01,19,10.80
2016,05,01,01,20,10.70
2016,05,01,01,21,10.70
2016,05,01,01,22,10.70
2016,05,01,01,23,10.70
2016,05,01,01,24,10.60
2016,05,01,01,25,10.60
2016,05,01,01,26,10.60
2016,05,01,01,27,10.50
2016,05,01,01,28,10.50
2016,05,01,01,29,10.40
2016,05,01,01,30,10.30
2016,05,01,01,31,10.30
2016,05,01,01,32,10.20
2016,05,01,01,33,10.20
2016,05,01,01,34,10.10
2016,05,01,01,35,10.10
2016,05,01,01,36,10.10
2016,05,01,01,37,10.00
2016,05,01,01,38,10.00
2016,05,01,01,39,10.00
2016,05,01,01,40,10.00
2016,05,01,01,41,10.00
2016,05,01,01,42,10.10
2016,05,01,01,43,10.10
2016,05,01,01,44,10.10
2016,05,01,01,45,10.20
2016,05,01,01,46,10.20
2016,05,01,01,47,10.20
2016,05,01,01,48,10.30
2016,05,01,01,49,10.30
2016,05,01,01,50,10.30
2016,05,01,01,51,10.30
2016,05,01,01,52,10.30
2016,05,01,01,53,10.30
2016,05,01,01,54,10.30
2016,05,01,01,55,10.20
2016,05,01,01,56,10.20
2016,05,01,01,57,10.20
2016,05,01,01,58,10.10
2016,05,01,01,59,10.10
2016,05,01,02,00,10.10
2016,05,01,02,01,10.00
2016,05,01,02,02,10.00
2016,05,01,02,03,9.90
2016,05,01,02,04,9.90
2016,05,01,02,05,9.80
2016,05,01,02,06,9.80
2016,05,01,02,07,9.80
2016,05,01,02,08,9.70
2016,05,01,02,09,9.70
2016,05,01,02,10,9.70
2016,05,01,02,11,9.70
2016,05,01,02,12,9.70
2016,05,01,02,13,9.70
2016,05,01,02,14,9.70
2016,05,01,02,15,9.60
2016,05,01,02,16,9.60
2016,05,01,02,17,9.60
2016,05,01,02,18,9.60
2016,05,01,02,19,9.60
2016,05,01,02,20,9.50
2016,05,01,02,21,9.50
2016,05,01,02,22,9.40
2016,05,01,02,23,9.40
2016,05,01,02,24,9.40
2016,05,01,02,25,9.30
2016,05,01,02,26,9.30
2016,05,01,02,27,9.20
2016,05,01,02,28,9.20
2016,05,01,02,29,9.10
2016,05,01,02,30,9.10
2016,05,01,02,31,9.10
2016,05,01,02,32,9.00
2016,05,01,02,33,9.00
2016,05,01,02,34,8.90
2016,05,01,02,35,8.90
2016,05,01,02,36,8.90
2016,05,01,02,37,8.90
2016,05,01,02,38,8.90
2016,05,01,02,39,8.90
2016,05,01,02,40,8.90
2016,05,01,02,41,9.00
2016,05,01,02,42,9.00
2016,05,01,02,43,9.20
2016,05,01,02,44,9.30
2016,05,01,02,45,9.40
2016,05,01,02,46,9.50
2016,05,01,02,47,9.60
2016,05,01,02,48,9.70
2016,05,01,02,49,9.70
2016,05,01,02,50,9.80
2016,05,01,02,51,9.80
2016,05,01,02,52,9.90
2016,05,01,02,53,10.00
2016,05,01,02,54,10.00
2016,05,01,02,55,10.10
2016,05,01,02,56,10.20
2016,05,01,02,57,10.20
2016,05,01,02,58,10.20
2016,05,01,02,59,10.30
2016,05,01,03,00,10.30
2016,05,01,03,01,10.30
2016,05,01,03,02,10.30
2016,05,01,03,03,10.40
2016,05,01,03,04,10.40
2016,05,01,03,05,10.40
2016,05,01,03,06,10.40
2016,05,01,03,07,10.40
2016,05,01,03,08,10.40
2016,05,01,03,09,10.40
2016,05,01,03,10,10.50
2016,05,01,03,11,10.50
2016,05,01,03,12,10.60
2016,05,01,03,13,10.60
2016,05,01,03,14,10.60
2016,05,01,03,15,10.70
2016,05,01,03,16,10.70
2016,05,01,03,17,10.70
2016,05,01,03,18,10.70
2016,05,01,03,19,10.70
2016,05,01,03,20,10.70
2016,05,01,03,21,10.70
2016,05,01,03,22,10.70
2016,05,01,03,23,10.70
2016,05,01,03,24,10.70
2016,05,01,03,25,10.70
2016,05,01,03,26,10.70
2016,05,01,03,27,10.70
2016,05,01,03,28,10.70
2016,05,01,03,29,10.70
2016,05,01,03,30,10.60
2016,05,01,03,31,10.60
2016,05,01,03,32,10.60
2016,05,01,03,33,10.60
2016,05,01,03,34,10.60
2016,05,01,03,35,10.60
2016,05,01,03,36,10.60
2016,05,01,03,37,10.60
2016,05,01,03,38,10.50
2016,05,01,03,39,10.50
2016,05,01,03,40,10.50
2016,05,01,03,41,10.40
2016,05,01,03,42,10.40
2016,05,01,03,43,10.40
2016,05,01,03,44,10.40
2016,05,01,03,45,10.30
2016,05,01,03,46,10.30
2016,05,01,03,47,10.20
2016,05,01,03,48,10.20
2016,05,01,03,49,10.10
2016,05,01,03,50,10.00
2016,05,01,03,51,9.90
2016,05,01,03,52,9.80
2016,05,01,03,53,9.60
2016,05,01,03,54,9.50
2016,05,01,03,55,9.40
2016,05,01,03,56,9.40
2016,05,01,03,57,9.30
2016,05,01,03,58,9.20
2016,05,01,03,59,9.20
2016,05,01,04,00,9.10
2016,05,01,04,01,9.10
2016,05,01,04,02,9.00
2016,05,01,04,03,9.00
2016,05,01,04,05,9.00
2016,05,01,04,06,9.00
2016,05,01,04,07,8.90
2016,05,01,04,08,8.90
2016,05,01,04,09,8.90
2016,05,01,04,10,8.90
2016,05,01,04,11,8.80
2016,05,01,04,12,8.80
2016,05,01,04,13,8.80
2016,05,01,04,14,8.80
2016,05,01,04,15,8.80
2016,05,01,04,16,8.80
2016,05,01,04,17,8.80
2016,05,01,04,18,8.80
2016,05,01,04,19,8.80
2016,05,01,04,20,8.80
2016,05,01,04,21,8.80
2016,05,01,04,22,8.90
2016,05,01,04,23,8.90
2016,05,01,04,24,8.80
2016,05,01,04,25,8.80
2016,05,01,04,26,8.80
2016,05,01,04,27,8.80
2016,05,01,04,28,8.80
2016,05,01,04,29,8.80
2016,05,01,04,30,8.80
2016,05,01,04,31,8.70
2016,05,01,04,32,8.70
2016,05,01,04,33,8.70
2016,05,01,04,34,8.70
2016,05,01,04,35,8.60
2016,05,01,04,36,8.60
2016,05,01,04,37,8.50
2016,05,01,04,38,8.50
2016,05,01,04,39,8.40
2016,05,01,04,40,8.40
2016,05,01,04,41,8.30
2016,05,01,04,42,8.40
2016,05,01,04,43,8.40
2016,05,01,04,44,8.50
2016,05,01,04,45,8.60
2016,05,01,04,46,8.60
2016,05,01,04,47,8.60
2016,05,01,04,48,8.60
2016,05,01,04,49,8.60
2016,05,01,04,50,8.60
2016,05,01,04,51,8.60
2016,05,01,04,52,8.60
2016,05,01,04,53,8.60
2016,05,01,04,54,8.60
2016,05,01,04,55,8.70
2016,05,01,04,56,8.70
2016,05,01,04,57,8.70
2016,05,01,04,58,8.70
2016,05,01,04,59,8.70
2016,05,01,05,00,8.70
2016,05,01,05,01,8.70
2016,05,01,05,02,8.80
2016,05,01,05,03,8.80
2016,05,01,05,04,8.80
2016,05,01,05,05,8.90
2016,05,01,05,06,8.90
2016,05,01,05,07,9.00
2016,05,01,05,08,9.10
2016,05,01,05,09,9.10
2016,05,01,05,10,9.20
2016,05,01,05,11,9.20
2016,05,01,05,12,9.20
2016,05,01,05,13,9.20
2016,05,01,05,14,9.10
2016,05,01,05,15,9.10
2016,05,01,05,16,9.10
2016,05,01,05,17,9.00
2016,05,01,05,18,9.00
2016,05,01,05,19,8.90
2016,05,01,05,20,8.90
2016,05,01,05,21,8.80
2016,05,01,05,22,8.80
2016,05,01,05,23,8.70
2016,05,01,05,24,8.60
2016,05,01,05,25,8.60
2016,05,01,05,26,8.60
2016,05,01,05,27,8.60
2016,05,01,05,28,8.60
2016,05,01,05,29,8.50
2016,05,01,05,30,8.60
2016,05,01,05,31,8.50
2016,05,01,05,32,8.60
2016,05,01,05,33,8.60
2016,05,01,05,34,8.60
2016,05,01,05,35,8.60
2016,05,01,05,36,8.60
2016,05,01,05,37,8.60
2016,05,01,05,38,8.60
2016,05,01,05,39,8.60
2016,05,01,05,40,8.60
2016,05,01,05,41,8.50
2016,05,01,05,42,8.50
2016,05,01,05,43,8.50
2016,05,01,05,44,8.50
2016,05,01,05,45,8.50
2016,05,01,05,46,8.50
2016,05,01,05,47,8.50
2016,05,01,05,48,8.50
2016,05,01,05,49,8.50
2016,05,01,05,50,8.50
2016,05,01,05,51,8.50
2016,05,01,05,52,8.40
2016,05,01,05,53,8.40
2016,05,01,05,54,8.40
2016,05,01,05,55,8.40
2016,05,01,05,56,8.40
2016,05,01,05,57,8.40
2016,05,01,05,58,8.40
2016,05,01,05,59,8.30
2016,05,01,06,00,8.30
2016,05,01,06,01,8.30
2016,05,01,06,02,8.30
2016,05,01,06,03,8.30
2016,05,01,06,04,8.30
2016,05,01,06,05,8.30
2016,05,01,06,06,8.30
2016,05,01,06,07,8.30
2016,05,01,06,08,8.30
2016,05,01,06,09,8.30
2016,05,01,06,10,8.30
2016,05,01,06,11,8.30
2016,05,01,06,12,8.30
2016,05,01,06,13,8.30
2016,05,01,06,14,8.30
2016,05,01,06,15,8.30
2016,05,01,06,16,8.30
2016,05,01,06,17,8.30
2016,05,01,06,18,8.30
2016,05,01,06,19,8.30
2016,05,01,06,20,8.30
2016,05,01,06,21,8.30
2016,05,01,06,22,8.30
2016,05,01,06,23,8.30
2016,05,01,06,24,8.30
2016,05,01,06,25,8.30
2016,05,01,06,26,8.30
2016,05,01,06,27,8.30
2016,05,01,06,28,8.30
2016,05,01,06,29,8.30
2016,05,01,06,30,8.30
2016,05,01,06,31,8.30
2016,05,01,06,32,8.30
2016,05,01,06,33,8.30
2016,05,01,06,34,8.30
2016,05,01,06,35,8.30
2016,05,01,06,36,8.20
2016,05,01,06,37,8.20
2016,05,01,06,38,8.20
2016,05,01,06,39,8.20
2016,05,01,06,40,8.20
2016,05,01,06,41,8.20
2016,05,01,06,42,8.20
2016,05,01,06,43,8.20
2016,05,01,06,44,8.10
2016,05,01,06,45,8.10
2016,05,01,06,46,8.10
2016,05,01,06,47,8.10
2016,05,01,06,48,8.10
2016,05,01,06,49,8.10
2016,05,01,06,50,8.20
2016,05,01,06,51,8.20
2016,05,01,06,52,8.20
2016,05,01,06,53,8.20
2016,05,01,06,54,8.20
2016,05,01,06,55,8.30
2016,05,01,06,56,8.30
2016,05,01,06,57,8.30
2016,05,01,06,58,8.30
2016,05,01,06,59,8.30
2016,05,01,07,00,8.30
2016,05,01,07,01,8.30
2016,05,01,07,02,8.30
2016,05,01,07,03,8.30
2016,05,01,07,04,8.30
2016,05,01,07,05,8.40
2016,05,01,07,06,8.40
2016,05,01,07,07,8.40
2016,05,01,07,08,8.40
2016,05,01,07,09,8.50
2016,05,01,07,10,8.50
2016,05,01,07,11,8.60
2016,05,01,07,12,8.60
2016,05,01,07,13,8.70
2016,05,01,07,14,8.70
2016,05,01,07,15,8.80
2016,05,01,07,16,8.80
2016,05,01,07,17,8.90
2016,05,01,07,18,8.90
2016,05,01,07,19,9.00
2016,05,01,07,20,9.10
2016,05,01,07,21,9.10
2016,05,01,07,22,9.10
2016,05,01,07,23,9.20
2016,05,01,07,24,9.20
2016,05,01,07,25,9.20
2016,05,01,07,26,9.20
2016,05,01,07,27,9.20
2016,05,01,07,28,9.30
2016,05,01,07,29,9.30
2016,05,01,07,30,9.30
2016,05,01,07,31,9.30
2016,05,01,07,32,9.40
2016,05,01,07,33,9.40
2016,05,01,07,34,9.40
2016,05,01,07,35,9.40
2016,05,01,07,36,9.50
2016,05,01,07,37,9.50
2016,05,01,07,38,9.60
2016,05,01,07,39,9.60
2016,05,01,07,40,9.60
2016,05,01,07,41,9.60
2016,05,01,07,42,9.70
2016,05,01,07,43,9.70
2016,05,01,07,44,9.70
2016,05,01,07,45,9.80
2016,05,01,07,46,9.80
2016,05,01,07,47,9.80
2016,05,01,07,48,9.80
2016,05,01,07,49,9.80
2016,05,01,07,50,9.80
2016,05,01,07,51,9.80
2016,05,01,07,52,9.80
2016,05,01,07,53,9.80
2016,05,01,07,54,9.80
2016,05,01,07,55,9.90
2016,05,01,07,56,9.90
2016,05,01,07,57,10.00
2016,05,01,07,58,10.00
2016,05,01,07,59,10.00
2016,05,01,08,00,10.00
2016,05,01,08,01,10.10
2016,05,01,08,02,10.10
2016,05,01,08,03,10.20
2016,05,01,08,04,10.20
2016,05,01,08,05,10.20
2016,05,01,08,06,10.20
2016,05,01,08,07,10.30
2016,05,01,08,08,10.30
2016,05,01,08,09,10.30
2016,05,01,08,10,10.40
2016,05,01,08,11,10.40
2016,05,01,08,12,10.50
2016,05,01,08,13,10.60
2016,05,01,08,14,10.60
2016,05,01,08,15,10.70
2016,05,01,08,16,10.80
2016,05,01,08,17,10.80
2016,05,01,08,18,10.90
2016,05,01,08,19,11.00
2016,05,01,08,20,11.10
2016,05,01,08,21,11.10
2016,05,01,08,22,11.20
2016,05,01,08,23,11.30
2016,05,01,08,24,11.30
2016,05,01,08,25,11.30
2016,05,01,08,26,11.30
2016,05,01,08,27,11.40
2016,05,01,08,28,11.40
2016,05,01,08,29,11.40
2016,05,01,08,30,11.50
2016,05,01,08,31,11.60
2016,05,01,08,32,11.70
2016,05,01,08,33,11.80
2016,05,01,08,34,11.80
2016,05,01,08,35,11.90
2016,05,01,08,36,11.90
2016,05,01,08,37,12.00
2016,05,01,08,38,12.00
2016,05,01,08,39,12.10
2016,05,01,08,40,12.10
2016,05,01,08,41,12.10
2016,05,01,08,42,12.20
2016,05,01,08,43,12.30
2016,05,01,08,44,12.30
2016,05,01,08,45,12.30
2016,05,01,08,46,12.40
2016,05,01,08,47,12.40
2016,05,01,08,48,12.50
2016,05,01,08,49,12.70
2016,05,01,08,50,12.80
2016,05,01,08,51,12.90
2016,05,01,08,52,12.90
2016,05,01,08,53,12.90
2016,05,01,08,54,12.90
2016,05,01,08,55,13.00
2016,05,01,08,56,13.00
2016,05,01,08,57,13.10
2016,05,01,08,58,13.20
2016,05,01,08,59,13.20
2016,05,01,09,00,13.20
2016,05,01,09,01,13.20
2016,05,01,09,02,13.30
2016,05,01,09,03,13.30
2016,05,01,09,04,13.40
2016,05,01,09,05,13.40
2016,05,01,09,06,13.40
2016,05,01,09,07,13.50
2016,05,01,09,08,13.60
2016,05,01,09,09,13.70
2016,05,01,09,10,13.70
2016,05,01,09,11,13.70
2016,05,01,09,12,13.70
2016,05,01,09,13,13.70
2016,05,01,09,14,13.70
2016,05,01,09,15,13.70
2016,05,01,09,16,13.80
2016,05,01,09,17,13.80
2016,05,01,09,18,13.90
2016,05,01,09,19,13.90
2016,05,01,09,20,13.90
2016,05,01,09,21,13.90
2016,05,01,09,22,13.90
2016,05,01,09,23,13.90
2016,05,01,09,24,13.90
2016,05,01,09,25,13.90
2016,05,01,09,26,13.90
2016,05,01,09,27,13.90
2016,05,01,09,28,13.90
2016,05,01,09,29,14.00
2016,05,01,09,30,14.10
2016,05,01,09,31,14.20
2016,05,01,09,32,14.30
2016,05,01,09,33,14.40
2016,05,01,09,34,14.60
2016,05,01,09,35,14.60
2016,05,01,09,36,14.70
2016,05,01,09,37,14.80
2016,05,01,09,38,14.80
2016,05,01,09,39,14.80
2016,05,01,09,40,14.80
2016,05,01,09,41,14.90
2016,05,01,09,42,14.90
2016,05,01,09,43,15.00
2016,05,01,09,44,15.00
2016,05,01,09,45,15.10
2016,05,01,09,46,15.20
2016,05,01,09,47,15.20
2016,05,01,09,48,15.30
2016,05,01,09,49,15.30
2016,05,01,09,50,15.40
2016,05,01,09,51,15.50
2016,05,01,09,52,15.50
2016,05,01,09,53,15.60
2016,05,01,09,54,15.60
2016,05,01,09,55,15.60
2016,05,01,09,56,15.70
2016,05,01,09,57,15.80
2016,05,01,09,58,15.80
2016,05,01,09,59,15.80
2016,05,01,10,00,15.80
2016,05,01,10,01,15.80
2016,05,01,10,02,15.80
2016,05,01,10,03,15.70
2016,05,01,10,04,15.70
2016,05,01,10,05,15.60
2016,05,01,10,06,15.50
2016,05,01,10,07,15.40
2016,05,01,10,08,15.40
2016,05,01,10,09,15.40
2016,05,01,10,10,15.50
2016,05,01,10,11,15.50
2016,05,01,10,12,15.50
2016,05,01,10,13,15.50
2016,05,01,10,14,15.50
2016,05,01,10,15,15.50
2016,05,01,10,16,15.70
2016,05,01,10,17,15.80
2016,05,01,10,18,15.90
2016,05,01,10,19,15.90
2016,05,01,10,20,16.00
2016,05,01,10,21,15.90
2016,05,01,10,22,15.90
2016,05,01,10,23,15.80
2016,05,01,10,24,15.80
2016,05,01,10,25,15.80
2016,05,01,10,26,15.90
2016,05,01,10,27,15.90
2016,05,01,10,28,16.10
2016,05,01,10,29,16.20
2016,05,01,10,30,16.20
2016,05,01,10,31,16.20
2016,05,01,10,32,16.20
2016,05,01,10,33,16.10
2016,05,01,10,34,16.10
2016,05,01,10,35,16.20
2016,05,01,10,36,16.30
2016,05,01,10,37,16.30
2016,05,01,10,38,16.30
2016,05,01,10,39,16.30
2016,05,01,10,40,16.30
2016,05,01,10,41,16.30
2016,05,01,10,42,16.30
2016,05,01,10,43,16.40
2016,05,01,10,44,16.60
2016,05,01,10,45,16.90
2016,05,01,10,46,17.00
2016,05,01,10,47,17.10
2016,05,01,10,48,17.20
2016,05,01,10,49,17.30
2016,05,01,10,50,17.30
2016,05,01,10,51,17.20
2016,05,01,10,52,17.20
2016,05,01,10,53,17.10
2016,05,01,10,54,17.10
2016,05,01,10,55,17.10
2016,05,01,10,56,17.10
2016,05,01,10,57,17.30
2016,05,01,10,58,17.40
2016,05,01,10,59,17.40
2016,05,01,11,00,17.40
2016,05,01,11,01,17.50
2016,05,01,11,02,17.60
2016,05,01,11,03,17.60
2016,05,01,11,04,17.70
2016,05,01,11,05,17.70
2016,05,01,11,06,17.70
2016,05,01,11,07,17.70
2016,05,01,11,08,17.70
2016,05,01,11,09,17.60
2016,05,01,11,10,17.60
2016,05,01,11,11,17.60
2016,05,01,11,12,17.70
2016,05,01,11,13,17.70
2016,05,01,11,14,17.70
2016,05,01,11,15,17.70
2016,05,01,11,16,17.70
2016,05,01,11,17,17.60
2016,05,01,11,18,17.50
2016,05,01,11,19,17.40
2016,05,01,11,20,17.50
2016,05,01,11,21,17.50
2016,05,01,11,22,17.50
2016,05,01,11,23,17.60
2016,05,01,11,24,17.70
2016,05,01,11,25,17.70
2016,05,01,11,26,17.70
2016,05,01,11,27,17.70
2016,05,01,11,28,17.70
2016,05,01,11,29,17.80
2016,05,01,11,30,17.80
2016,05,01,11,31,17.80
2016,05,01,11,32,17.80
2016,05,01,11,33,17.80
2016,05,01,11,34,17.80
2016,05,01,11,35,17.80
2016,05,01,11,36,17.90
2016,05,01,11,37,18.00
2016,05,01,11,38,18.10
2016,05,01,11,39,18.10
2016,05,01,11,40,18.10
2016,05,01,11,41,18.10
2016,05,01,11,42,18.10
2016,05,01,11,43,18.20
2016,05,01,11,44,18.20
2016,05,01,11,45,18.30
2016,05,01,11,46,18.30
2016,05,01,11,47,18.40
2016,05,01,11,48,18.40
2016,05,01,11,49,18.40
2016,05,01,11,50,18.40
2016,05,01,11,51,18.40
2016,05,01,11,52,18.30
2016,05,01,11,53,18.20
2016,05,01,11,54,18.20
2016,05,01,11,55,18.20
2016,05,01,11,56,18.20
2016,05,01,11,57,18.10
2016,05,01,11,58,18.20
2016,05,01,11,59,18.20
2016,05,01,12,00,18.10
2016,05,01,12,01,18.10
2016,05,01,12,02,18.00
2016,05,01,12,03,18.00
2016,05,01,12,04,17.90
2016,05,01,12,05,17.90
2016,05,01,12,06,17.90
2016,05,01,12,07,17.90
2016,05,01,12,08,17.90
2016,05,01,12,09,17.80
2016,05,01,12,10,17.80
2016,05,01,12,11,17.70
2016,05,01,12,12,17.70
2016,05,01,12,13,17.70
2016,05,01,12,14,17.80
2016,05,01,12,15,17.70
2016,05,01,12,16,17.80
2016,05,01,12,17,17.90
2016,05,01,12,18,17.90
2016,05,01,12,19,18.00
2016,05,01,12,20,18.00
2016,05,01,12,21,18.00
2016,05,01,12,22,18.00
2016,05,01,12,23,18.00
2016,05,01,12,24,18.10
2016,05,01,12,25,18.10
2016,05,01,12,26,18.10
2016,05,01,12,27,18.20
2016,05,01,12,28,18.20
2016,05,01,12,29,18.20
2016,05,01,12,30,18.20
2016,05,01,12,31,18.20
2016,05,01,12,32,18.30
2016,05,01,12,33,18.30
2016,05,01,12,34,18.30
2016,05,01,12,35,18.40
2016,05,01,12,36,18.30
2016,05,01,12,37,18.40
2016,05,01,12,38,18.40
2016,05,01,12,39,18.40
2016,05,01,12,40,18.30
2016,05,01,12,41,18.30
2016,05,01,12,42,18.30
2016,05,01,12,43,18.30
2016,05,01,12,44,18.30
2016,05,01,12,45,18.40
2016,05,01,12,46,18.40
2016,05,01,12,47,18.40
2016,05,01,12,48,18.40
2016,05,01,12,49,18.40
2016,05,01,12,50,18.30
2016,05,01,12,51,18.20
2016,05,01,12,52,18.10
2016,05,01,12,53,18.10
2016,05,01,12,54,18.10
2016,05,01,12,55,18.20
2016,05,01,12,56,18.30
2016,05,01,12,57,18.30
2016,05,01,12,58,18.20
2016,05,01,12,59,18.20
2016,05,01,13,00,18.20
2016,05,01,13,01,18.30
2016,05,01,13,02,18.40
2016,05,01,13,03,18.40
2016,05,01,13,04,18.50
2016,05,01,13,05,18.40
2016,05,01,13,06,18.40
2016,05,01,13,07,18.40
2016,05,01,13,08,18.40
2016,05,01,13,09,18.40
2016,05,01,13,10,18.50
2016,05,01,13,11,18.60
2016,05,01,13,12,18.70
2016,05,01,13,13,18.70
2016,05,01,13,14,18.70
2016,05,01,13,15,18.70
2016,05,01,13,16,18.70
2016,05,01,13,17,18.80
2016,05,01,13,18,18.80
2016,05,01,13,19,18.80
2016,05,01,13,20,18.90
2016,05,01,13,21,18.90
2016,05,01,13,22,18.90
2016,05,01,13,23,18.90
2016,05,01,13,24,18.90
2016,05,01,13,25,19.00
2016,05,01,13,26,19.10
2016,05,01,13,27,19.10
2016,05,01,13,28,19.10
2016,05,01,13,29,19.00
2016,05,01,13,30,19.00
2016,05,01,13,31,18.90
2016,05,01,13,32,18.90
2016,05,01,13,33,18.90
2016,05,01,13,34,18.90
2016,05,01,13,35,19.00
2016,05,01,13,36,19.10
2016,05,01,13,37,19.10
2016,05,01,13,38,19.30
2016,05,01,13,39,19.40
2016,05,01,13,40,19.40
2016,05,01,13,41,19.40
2016,05,01,13,42,19.40
2016,05,01,13,43,19.40
2016,05,01,13,44,19.40
2016,05,01,13,45,19.40
2016,05,01,13,46,19.40
2016,05,01,13,47,19.30
2016,05,01,13,48,19.30
2016,05,01,13,49,19.30
2016,05,01,13,50,19.30
2016,05,01,13,51,19.30
2016,05,01,13,52,19.40
2016,05,01,13,53,19.40
2016,05,01,13,54,19.40
2016,05,01,13,55,19.40
2016,05,01,13,56,19.30
2016,05,01,13,57,19.30
2016,05,01,13,58,19.30
2016,05,01,13,59,19.30
2016,05,01,14,00,19.30
2016,05,01,14,01,19.30
2016,05,01,14,02,19.30
2016,05,01,14,03,19.30
2016,05,01,14,04,19.20
2016,05,01,14,05,19.20
2016,05,01,14,06,19.20
2016,05,01,14,07,19.20
2016,05,01,14,08,19.20
2016,05,01,14,09,19.10
2016,05,01,14,10,19.10
2016,05,01,14,11,19.10
2016,05,01,14,12,19.10
2016,05,01,14,13,19.10
2016,05,01,14,14,19.20
2016,05,01,14,15,19.20
2016,05,01,14,16,19.20
2016,05,01,14,17,19.30
2016,05,01,14,18,19.20
2016,05,01,14,19,19.20
2016,05,01,14,20,19.20
2016,05,01,14,21,19.10
2016,05,01,14,22,19.10
2016,05,01,14,23,19.20
2016,05,01,14,24,19.30
2016,05,01,14,25,19.30
2016,05,01,14,26,19.30
2016,05,01,14,27,19.30
2016,05,01,14,28,19.30
2016,05,01,14,29,19.20
2016,05,01,14,30,19.20
2016,05,01,14,31,19.20
2016,05,01,14,32,19.20
2016,05,01,14,33,19.20
2016,05,01,14,34,19.30
2016,05,01,14,35,19.30
2016,05,01,14,36,19.30
2016,05,01,14,37,19.30
2016,05,01,14,38,19.30
2016,05,01,14,39,19.20
2016,05,01,14,40,19.20
2016,05,01,14,41,19.20
2016,05,01,14,42,19.20
2016,05,01,14,43,19.20
2016,05,01,14,44,19.20
2016,05,01,14,45,19.20
2016,05,01,14,46,19.20
2016,05,01,14,47,19.20
2016,05,01,14,48,19.20
2016,05,01,14,49,19.30
2016,05,01,14,50,19.50
2016,05,01,14,51,19.60
2016,05,01,14,52,19.70
2016,05,01,14,53,19.70
2016,05,01,14,54,19.70
2016,05,01,14,55,19.70
2016,05,01,14,56,19.60
2016,05,01,14,57,19.50
2016,05,01,14,58,19.40
2016,05,01,14,59,19.40
2016,05,01,15,00,19.40
2016,05,01,15,01,19.40
2016,05,01,15,02,19.40
2016,05,01,15,03,19.40
2016,05,01,15,04,19.40
2016,05,01,15,05,19.50
2016,05,01,15,06,19.60
2016,05,01,15,07,19.70
2016,05,01,15,08,19.80
2016,05,01,15,09,19.80
2016,05,01,15,10,19.70
2016,05,01,15,11,19.70
2016,05,01,15,12,19.60
2016,05,01,15,13,19.60
2016,05,01,15,14,19.70
2016,05,01,15,15,19.70
2016,05,01,15,16,19.60
2016,05,01,15,17,19.60
2016,05,01,15,18,19.50
2016,05,01,15,19,19.50
2016,05,01,15,20,19.50
2016,05,01,15,21,19.60
2016,05,01,15,22,19.60
2016,05,01,15,23,19.50
2016,05,01,15,24,19.50
2016,05,01,15,25,19.40
2016,05,01,15,26,19.40
2016,05,01,15,27,19.40
2016,05,01,15,28,19.50
2016,05,01,15,29,19.50
2016,05,01,15,30,19.60
2016,05,01,15,31,19.60
2016,05,01,15,32,19.70
2016,05,01,15,33,19.80
2016,05,01,15,34,19.90
2016,05,01,15,35,20.00
2016,05,01,15,36,20.10
2016,05,01,15,37,20.10
2016,05,01,15,38,20.20
2016,05,01,15,39,20.20
2016,05,01,15,40,20.30
2016,05,01,15,41,20.40
2016,05,01,15,42,20.50
2016,05,01,15,43,20.50
2016,05,01,15,44,20.50
2016,05,01,15,45,20.40
2016,05,01,15,46,20.40
2016,05,01,15,47,20.40
2016,05,01,15,48,20.40
2016,05,01,15,49,20.40
2016,05,01,15,50,20.60
2016,05,01,15,51,20.70
2016,05,01,15,52,20.80
2016,05,01,15,53,20.80
2016,05,01,15,54,20.90
2016,05,01,15,55,20.90
2016,05,01,15,56,20.90
2016,05,01,15,57,20.90
2016,05,01,15,58,21.00
2016,05,01,15,59,21.00
2016,05,01,16,00,20.90
2016,05,01,16,01,20.90
2016,05,01,16,02,20.80
2016,05,01,16,03,20.80
2016,05,01,16,04,20.80
2016,05,01,16,05,20.80
2016,05,01,16,06,20.80
2016,05,01,16,07,20.80
2016,05,01,16,08,20.80
2016,05,01,16,09,20.80
2016,05,01,16,10,20.80
2016,05,01,16,11,20.80
2016,05,01,16,12,20.80
2016,05,01,16,13,20.80
2016,05,01,16,14,20.80
2016,05,01,16,15,20.80
2016,05,01,16,16,20.80
2016,05,01,16,17,20.80
2016,05,01,16,18,20.90
2016,05,01,16,19,21.00
2016,05,01,16,20,21.00
2016,05,01,16,21,21.10
2016,05,01,16,22,21.20
2016,05,01,16,23,21.20
2016,05,01,16,24,21.20
2016,05,01,16,25,21.20
2016,05,01,16,26,21.20
2016,05,01,16,27,21.20
2016,05,01,16,28,21.10
2016,05,01,16,29,21.20
2016,05,01,16,30,21.20
2016,05,01,16,31,21.20
2016,05,01,16,32,21.20
2016,05,01,16,33,21.20
2016,05,01,16,34,21.20
2016,05,01,16,35,21.20
2016,05,01,16,36,21.20
2016,05,01,16,37,21.10
2016,05,01,16,38,21.10
2016,05,01,16,39,21.10
2016,05,01,16,40,21.10
2016,05,01,16,41,21.10
2016,05,01,16,42,21.10
2016,05,01,16,43,21.10
2016,05,01,16,44,21.10
2016,05,01,16,45,21.10
2016,05,01,16,46,21.10
2016,05,01,16,47,21.10
2016,05,01,16,48,21.20
2016,05,01,16,49,21.20
2016,05,01,16,50,21.20
2016,05,01,16,51,21.10
2016,05,01,16,52,21.10
2016,05,01,16,53,21.10
2016,05,01,16,54,21.10
2016,05,01,16,55,21.10
2016,05,01,16,56,21.10
2016,05,01,16,57,21.10
2016,05,01,16,58,21.20
2016,05,01,16,59,21.20
2016,05,01,17,00,21.20
2016,05,01,17,01,21.20
2016,05,01,17,02,21.20
2016,05,01,17,03,21.30
2016,05,01,17,04,21.30
2016,05,01,17,05,21.30
2016,05,01,17,06,21.30
2016,05,01,17,07,21.20
2016,05,01,17,08,21.20
2016,05,01,17,09,21.20
2016,05,01,17,10,21.10
2016,05,01,17,11,21.10
2016,05,01,17,12,21.10
2016,05,01,17,13,21.10
2016,05,01,17,14,21.10
2016,05,01,17,15,21.10
2016,05,01,17,16,21.10
2016,05,01,17,17,21.10
2016,05,01,17,18,21.20
2016,05,01,17,19,21.20
2016,05,01,17,20,21.30
2016,05,01,17,21,21.20
2016,05,01,17,22,21.20
2016,05,01,17,23,21.20
2016,05,01,17,24,21.20
2016,05,01,17,25,21.20
2016,05,01,17,26,21.20
2016,05,01,17,27,21.10
2016,05,01,17,28,21.10
2016,05,01,17,29,21.10
2016,05,01,17,30,21.10
2016,05,01,17,31,21.10
2016,05,01,17,32,21.20
2016,05,01,17,33,21.20